Hourly Weather Roundup
Issued by NWS Central Illinois

Home | Current Version | Previous Version | Text Only | Print | Product List | Glossary On
Versions: 1 2 3 4 5 6 7 8 9 10 11 12 13 14 15 16 17 18 19 20 21 22 23 24 25 26 27 28 29 30 31 32 33 34 35 36 37 38 39 40 41 42 43 44 45 46 47 48 49 50
000
NZUS43 KILX 301810
HWRILX

AREA WEATHER ROUNDUP
NATIONAL WEATHER SERVICE, LINCOLN IL
1200 PM CST FRI JAN 30 2015


CITY           SKY/WX    TMP DP  RH WIND       PRES   REMARKS
BLOOMINGTON    MOSUNNY   31  19  61 CALM      30.52F
6HR MIN TEMP:  22; 6HR MAX TEMP:  31;

CHAMPAIGN      SUNNY     32  15  49 VRB6      30.51F WCI  26
6HR MIN TEMP:  23; 6HR MAX TEMP:  32;

DECATUR        SUNNY     32  17  54 CALM      30.52F
6HR MIN TEMP:  25; 6HR MAX TEMP:  33;

FLORA          SUNNY     34  20  57 N7        30.53F WCI  28
6HR MIN TEMP:  29; 6HR MAX TEMP:  34;

GALESBURG      SUNNY     28  17  62 CALM      30.53F
JACKSONVILLE   SUNNY     33  18  55 CALM      30.53F
6HR MIN TEMP:  24; 6HR MAX TEMP:  33;

LACON          SUNNY     29  14  53 CALM      30.53F
6HR MIN TEMP:  21; 6HR MAX TEMP:  29;

LAWRENCEVILLE  MOSUNNY   34  20  56 NW7       30.52F WCI  28
6HR MIN TEMP:  30; 6HR MAX TEMP:  37;

LITCHFIELD     SUNNY     32  18  56 N6        30.52F WCI  26
$$


CITY           SKY/WX    TMP DP  RH WIND       PRES   REMARKS
LINCOLN        SUNNY     33  21  62 CALM      30.54F
6HR MIN TEMP:  25; 6HR MAX TEMP:  33;

MACOMB         SUNNY     28  18  65 CALM      30.55F
MATTOON        SUNNY     32  18  56 NE6       30.50F WCI  26
6HR MIN TEMP:  25; 6HR MAX TEMP:  32;

MT CARMEL AP   PTSUNNY   37  23  56 N9        30.51F WCI  31
OLNEY-NOBLE AP MOSUNNY   34  23  64 CALM      30.52F
PARIS          SUNNY     32  18  55 N6        30.51F WCI  27
6HR MIN TEMP:  27; 6HR MAX TEMP:  33;

PEORIA         SUNNY     33  16  49 W5        30.52F WCI  29
6HR MIN TEMP:  23; 6HR MAX TEMP:  33;

PONTIAC        SUNNY     30  19  61 CALM      30.52F
RANTOUL        SUNNY     32  16  50 NE3       30.51F
6HR MIN TEMP:  25; 6HR MAX TEMP:  32;

ROBINSON       MOSUNNY   34  20  57 N9        30.53F WCI  26
6HR MIN TEMP:  29; 6HR MAX TEMP:  35;

SPRINGFIELD    SUNNY     33  18  53 CALM      30.53F
6HR MIN TEMP:  24; 6HR MAX TEMP:  34;

TAYLORVILLE    SUNNY     32  21  64 N6        30.54F WCI  26
$$

...REGIONAL REPORTS...


CITY           SKY/WX    TMP DP  RH WIND       PRES   REMARKS
CHICAGO O`HARE MOSUNNY   25   8  48 VRB6      30.51F WCI  18
KANKAKEE       SUNNY     29  14  53 N5        30.52F WCI  24
MOLINE         SUNNY     26  12  55 CALM      30.54S
MOUNT VERNON   SUNNY     36  21  55 CALM      30.53F
PITTSFIELD     SUNNY     33  18  54 CALM      30.55S
QUINCY         SUNNY     30  16  56 NW3       30.53F
ROCKFORD       PTSUNNY   25   8  48 W5        30.54F WCI  19
$$


CITY           SKY/WX    TMP DP  RH WIND       PRES   REMARKS
BURLINGTON     SUNNY     28  17  63 VRB3      30.53F
CEDAR RAPIDS   SUNNY     25  14  63 VRB5      30.51F WCI  19
DES MOINES     PTSUNNY   28  13  53 SW6       30.53F WCI  22
KIRKSVILLE     SUNNY     30  18  60 SE3       30.54F
OTTUMWA        SUNNY     27  13  55 CALM      30.53F
ST LOUIS       MOSUNNY   36  17  46 CALM      30.54F
$$


CITY           SKY/WX    TMP DP  RH WIND       PRES   REMARKS
TERRE HAUTE    SUNNY     33  14  45 NW3       30.51F
EVANSVILLE     MOSUNNY   38  21  50 N10       30.51F WCI  31
INDIANAPOLIS   PTSUNNY   27  14  58 N10       30.48F WCI  17
LAFAYETTE      CLOUDY    28  15  58 N10       30.50F WCI  19
MADISON        PTSUNNY   21   9  59 CALM      30.50F
MILWAUKEE      MOSUNNY   25   7  46 CALM      30.50F
$$





USA.gov is the U.S. government's official web portal to all federal, state and local government web resources and services.